KB1QVF Weather Reports


time (UTC)temp
C
wind
direction
speed
KPH
gust
KPH
rain 1hr
cm
rain 24hr
cm
rain mn
cm
humidity
%
barometer
mb
20260507084037 9 336 9.7 14.5 0.00 0.38 0.38 97 1009.3
20260507083533 9 3 3.2 11.3 0.18 0.38 0.38 97 1009.3
20260507083030 9 324 8.0 14.5 0.18 0.38 0.38 97 1009.1
20260507082526 9 26 3.2 14.5 0.13 0.36 0.36 96 1009.3
20260507082023 9 7 12.9 14.5 0.30 0.36 0.36 96 1009.4
20260507081519 9 16 0.0 4.8 0.18 0.33 0.33 96 1009.5
20260507081016 9 8 11.3 17.7 0.00 0.30 0.30 96 1009.5
20260507080512 10 11 9.7 12.9 0.18 0.30 0.30 96 1009.5
20260507080008 10 337 3.2 6.4 0.18 0.30 0.30 96 1009.3
20260507075504 10 8 4.8 6.4 0.00 0.28 0.28 96 1009.1
20260507075001 10 348 4.8 4.8 0.13 0.28 0.28 96 1009.5
20260507074457 10 357 3.2 6.4 0.30 0.28 0.28 96 1009.5
20260507073955 10 22 4.8 6.4 0.13 0.23 0.23 96 1009.8
20260507073451 10 6 1.6 14.5 0.18 0.20 0.20 95 1009.8
20260507072948 10 23 0.0 4.8 0.61 0.20 0.20 95 1009.8
20260507072446 10 10 1.6 6.4 0.89 0.18 0.18 95 1009.4
20260507071943 10 354 1.6 9.7 0.48 0.10 0.10 95 1009.4
20260507071440 10 315 4.8 9.7 0.18 0.03 0.03 94 1009.6
20260507070936 10 354 3.2 4.8 0.18 0.03 0.03 94 1009.1
20260507070434 10 292 3.2 3.2 0.00 0.00 0.00 95 1009.1
20260507065930 10 304 1.6 4.8 0.00 0.00 0.00 94 1008.6
20260507065427 10 11 0.0 3.2 0.00 0.00 0.00 94 1008.5
20260507064925 10 14 1.6 6.4 0.00 0.00 0.00 94 1008.5
20260507064423 10 2 6.4 11.3 0.00 0.00 0.00 94 1008.4
20260507063920 10 334 6.4 9.7 0.00 0.00 0.00 94 1008.7
20260507063417 11 15 3.2 9.7 0.00 0.00 0.00 94 1008.7
20260507062914 11 352 4.8 9.7 0.00 0.00 0.00 94 1008.8
20260507062411 11 16 0.0 4.8 0.00 0.00 0.00 94 1008.9
20260507061908 11 4 6.4 6.4 0.00 0.00 0.00 94 1008.7
20260507061407 11 344 4.8 6.4 0.00 0.00 0.00 94 1008.9
20260507060905 11 15 1.6 4.8 0.00 0.00 0.00 94 1008.7
20260507060401 11 13 3.2 4.8 0.00 0.00 0.00 94 1008.9
20260507055858 11 1 6.4 12.9 0.00 0.00 0.00 95 1008.9
20260507055353 11 350 3.2 9.7 0.00 0.00 0.00 95 1008.9
20260507054850 11 13 0.0 4.8 0.00 0.00 0.00 96 1009.0
20260507054346 11 21 1.6 6.4 0.00 0.00 0.00 96 1008.8
20260507053843 12 14 0.0 3.2 0.00 0.00 0.00 96 1009.0
20260507053341 12 29 3.2 14.5 0.00 0.00 0.00 97 1008.9
20260507052840 12 349 14.5 20.9 0.00 0.00 0.00 97 1009.1
20260507052336 12 337 6.4 9.7 0.00 0.00 0.00 97 1009.0
20260507051834 12 25 0.0 9.7 0.00 0.00 0.00 97 1009.2
20260507051331 12 9 4.8 9.7 0.00 0.00 0.00 97 1009.1
20260507050828 12 17 0.0 11.3 0.00 0.00 0.00 97 1009.1
20260507050324 12 14 1.6 4.8 0.00 0.00 0.00 98 1009.1
20260507045821 12 17 1.6 4.8 0.00 0.00 0.00 98 1009.2
20260507045318 12 11 1.6 3.2 0.00 0.00 0.00 98 1009.2
20260507044815 12 343 3.2 4.8 0.00 0.00 0.00 98 1009.4
20260507044311 12 335 6.4 9.7 0.00 0.00 0.00 98 1009.3
20260507043807 12 5 0.0 12.9 0.00 0.00 0.00 98 1009.2
20260507043304 12 313 4.8 6.4 0.00 0.00 0.00 98 1008.9
20260507042800 12 12 3.2 12.9 0.00 0.00 0.00 98 1009.1
20260507042256 12 36 0.0 4.8 0.00 0.00 0.00 98 1009.2
20260507041753 12 280 9.7 16.1 0.00 0.00 0.00 98 1009.3
20260507041249 13 294 9.7 14.5 0.00 0.00 0.00 98 1009.4
20260507040747 13 293 4.8 17.7 0.00 0.00 0.00 98 1009.2
20260507040243 13 121 1.6 9.7 0.00 0.00 0.00 99 1009.0
20260507035739 13 99 1.6 11.3 0.00 0.30 0.30 99 1009.1
20260507035234 13 296 6.4 12.9 0.00 0.30 0.30 99 1009.1
20260507034732 13 5 1.6 9.7 0.00 0.30 0.30 99 1009.1
20260507034229 13 350 4.8 9.7 0.00 0.30 0.30 99 1009.1
20260507033727 13 7 0.0 11.3 0.00 0.30 0.30 99 1009.0
20260507033224 13 219 3.2 6.4 0.00 0.30 0.30 99 1009.0
20260507032722 13 301 1.6 11.3 0.00 0.30 0.30 99 1009.0
20260507032218 13 17 4.8 16.1 0.00 0.30 0.30 99 1009.1
20260507031715 13 193 17.7 22.5 0.00 0.30 0.30 99 1008.9
20260507031211 13 205 9.7 16.1 0.00 0.30 0.30 99 1009.2
20260507030708 13 197 16.1 24.1 0.00 0.30 0.30 99 1009.1
20260507030206 13 201 3.2 11.3 0.00 0.30 0.30 99 1009.0
20260507025702 13 3 4.8 12.9 0.00 0.30 0.30 98 1008.9
20260507025159 13 178 11.3 12.9 0.00 0.30 0.30 98 1009.0
20260507024658 13 263 6.4 16.1 0.00 0.30 0.30 98 1009.1
20260507024154 13 194 8.0 12.9 0.00 0.30 0.30 98 1009.0
20260507023650 13 271 6.4 14.5 0.00 0.30 0.30 98 1009.1
20260507023147 13 132 14.5 17.7 0.00 0.30 0.30 98 1009.1
20260507022644 13 141 8.0 14.5 0.00 0.30 0.30 98 1009.0
20260507022140 13 169 11.3 17.7 0.00 0.30 0.30 98 1008.8
20260507021637 13 194 11.3 14.5 0.00 0.30 0.30 98 1009.2
20260507021132 13 218 14.5 17.7 0.00 0.30 0.30 98 1009.0
20260507020631 13 53 8.0 17.7 0.00 0.30 0.30 98 1008.9
20260507020126 13 122 20.9 27.4 0.00 0.30 0.30 98 1009.3
20260507015625 13 353 3.2 14.5 0.00 0.30 0.30 98 1009.3
20260507015122 13 158 14.5 20.9 0.00 0.30 0.30 98 1009.0
20260507014619 13 76 6.4 12.9 0.00 0.30 0.30 98 1009.0
20260507014114 13 29 4.8 9.7 0.00 0.30 0.30 98 1009.0
20260507013611 13 101 3.2 11.3 0.00 0.30 0.30 98 1008.9
20260507013108 13 7 4.8 6.4 0.00 0.30 0.30 98 1008.7
20260507012606 13 73 4.8 20.9 0.00 0.30 0.30 98 1009.0
20260507012102 13 186 8.0 9.7 0.00 0.30 0.30 98 1009.1
20260507011600 13 57 3.2 9.7 0.00 0.30 0.30 98 1009.1
20260507011056 13 87 3.2 9.7 0.00 0.30 0.30 98 1009.1
20260507010556 13 204 9.7 11.3 0.00 0.30 0.30 98 1009.2
20260507010052 13 158 4.8 14.5 0.00 0.30 0.30 98 1009.4
20260507005550 13 145 6.4 12.9 0.00 0.30 0.30 98 1009.4
20260507005046 13 357 3.2 12.9 0.00 0.30 0.30 98 1009.4
20260507004543 13 30 6.4 17.7 0.00 0.30 0.30 98 1009.4
20260507004040 13 133 8.0 16.1 0.00 0.30 0.30 98 1009.3
20260507003536 13 258 12.9 17.7 0.00 0.30 0.30 98 1009.4
20260507003031 13 184 8.0 14.5 0.00 0.30 0.30 98 1009.5
20260507002528 13 300 6.4 20.9 0.00 0.30 0.30 98 1009.5
20260507002025 13 127 9.7 14.5 0.00 0.30 0.30 98 1009.2
20260507001521 13 47 6.4 22.5 0.00 0.30 0.30 98 1009.2
20260507001019 13 328 6.4 20.9 0.00 0.30 0.30 98 1009.2
20260507000514 13 146 6.4 20.9 0.00 0.30 0.30 97 1009.1
20260507000010 13 19 6.4 14.5 0.00 0.30 0.30 97 1009.1
20260506235508 13 15 3.2 22.5 0.00 0.30 0.30 97 1009.2
20260506235003 13 174 11.3 20.9 0.00 0.30 0.30 97 1009.3
20260506234501 13 210 14.5 25.7 0.00 0.30 0.30 97 1009.0
20260506233958 13 45 4.8 16.1 0.00 0.30 0.30 97 1009.0
20260506233455 13 32 8.0 17.7 0.00 0.30 0.30 97 1009.2
20260506232951 13 343 4.8 20.9 0.00 0.30 0.30 97 1009.0
20260506232448 13 283 6.4 11.3 0.00 0.30 0.30 97 1008.8
20260506231943 13 231 6.4 12.9 0.00 0.30 0.30 97 1009.0
20260506231441 13 49 6.4 12.9 0.13 0.30 0.30 97 1008.9
20260506230938 13 168 17.7 20.9 0.13 0.30 0.30 97 1009.0
20260506230434 13 49 1.6 6.4 0.00 0.28 0.28 96 1009.0
20260506225931 13 162 12.9 17.7 0.00 0.28 0.28 96 1009.0
20260506225428 13 173 14.5 20.9 0.00 0.28 0.28 96 1009.0
20260506224925 13 201 14.5 20.9 0.00 0.28 0.28 96 1009.0
20260506224422 13 190 17.7 20.9 0.00 0.28 0.28 96 1008.8
20260506223919 13 239 9.7 17.7 0.00 0.28 0.28 96 1008.8
20260506223414 13 111 8.0 14.5 0.00 0.28 0.28 96 1009.0
20260506222912 13 148 6.4 17.7 0.18 0.28 0.28 96 1008.9
20260506222408 13 176 6.4 9.7 0.30 0.28 0.28 96 1008.9
20260506221906 13 342 9.7 14.5 0.13 0.25 0.25 96 1009.0
20260506221402 13 150 14.5 20.9 0.00 0.23 0.23 96 1008.8
20260506220900 13 165 22.5 29.0 0.00 0.23 0.23 96 1008.8
20260506220355 13 24 4.8 12.9 0.00 0.23 0.23 96 1008.5
20260506215852 13 99 9.7 17.7 0.00 0.23 0.23 96 1009.0
20260506215348 13 335 6.4 11.3 0.18 0.23 0.23 96 1009.2
20260506214844 13 134 6.4 17.7 0.00 0.20 0.20 96 1009.0
20260506214341 13 122 16.1 24.1 0.13 0.20 0.20 95 1009.2
20260506213839 13 352 6.4 27.4 0.13 0.20 0.20 95 1009.0
20260506213336 13 95 4.8 9.7 0.00 0.18 0.18 95 1009.4
20260506212833 13 44 6.4 17.7 0.00 0.18 0.18 95 1009.3
20260506212329 13 216 8.0 11.3 0.18 0.18 0.18 95 1009.5
20260506211824 13 178 9.7 16.1 0.00 0.15 0.15 95 1009.3
20260506211320 13 178 12.9 25.7 0.00 0.15 0.15 94 1009.6
20260506210818 13 91 3.2 24.1 0.00 0.15 0.15 94 1009.7
20260506210315 13 140 3.2 17.7 0.00 0.15 0.15 94 1009.6
20260506205812 13 170 8.0 17.7 0.00 0.15 0.15 94 1009.5
20260506205308 14 178 8.0 11.3 0.00 0.15 0.15 94 1009.9
20260506204804 14 175 14.5 20.9 0.00 0.15 0.15 94 1009.7
20260506204302 14 164 14.5 25.7 0.00 0.15 0.15 94 1009.9
20260506203800 14 256 6.4 6.4 0.00 0.15 0.15 94 1009.9
20260506203257 14 173 8.0 22.5 0.00 0.15 0.15 94 1009.6
20260506202754 13 116 6.4 33.8 0.00 0.15 0.15 94 1009.7
20260506202251 14 228 6.4 24.1 0.00 0.15 0.15 94 1010.0
20260506201747 14 154 9.7 22.5 0.00 0.15 0.15 94 1009.7
20260506201244 14 177 9.7 14.5 0.00 0.15 0.15 94 1009.8
20260506200741 14 167 20.9 24.1 0.00 0.15 0.15 94 1009.8
20260506200237 14 77 8.0 25.7 0.00 0.15 0.15 94 1010.1
20260506195733 14 124 6.4 22.5 0.00 0.15 0.15 94 1010.1
20260506195230 14 354 3.2 25.7 0.00 0.15 0.15 93 1010.0
20260506194728 14 307 4.8 16.1 0.00 0.15 0.15 93 1010.1
20260506194224 14 116 14.5 25.7 0.00 0.15 0.15 93 1010.2
20260506193722 14 169 14.5 17.7 0.13 0.15 0.15 93 1010.0
20260506193218 14 17 1.6 24.1 0.30 0.15 0.15 93 1010.1
20260506192716 14 107 16.1 22.5 0.18 0.13 0.13 92 1010.2
20260506192212 14 126 6.4 16.1 0.30 0.10 0.10 91 1010.3
20260506191709 14 191 6.4 20.9 0.18 0.08 0.08 90 1010.2
20260506191205 15 162 3.2 22.5 0.13 0.05 0.05 89 1010.4
20260506190703 15 167 12.9 17.7 0.13 0.05 0.05 89 1010.2
20260506190159 15 140 6.4 11.3 0.00 0.03 0.03 88 1010.2
20260506185656 15 222 12.9 22.5 0.18 0.03 0.03 87 1010.3
20260506185152 15 219 12.9 17.7 0.18 0.03 0.03 87 1010.4
20260506184650 15 348 9.7 29.0 0.00 0.00 0.00 85 1010.7
20260506184147 15 188 12.9 29.0 0.00 0.00 0.00 83 1010.7
20260506183643 15 237 14.5 35.4 0.00 0.00 0.00 81 1010.7
20260506183139 16 191 17.7 29.0 0.00 0.00 0.00 79 1010.8
20260506182637 16 212 17.7 30.6 0.00 0.00 0.00 76 1010.7
20260506182134 16 164 11.3 29.0 0.00 0.00 0.00 76 1010.8
20260506181632 16 175 12.9 20.9 0.00 0.00 0.00 74 1010.8
20260506181129 17 359 4.8 12.9 0.00 0.00 0.00 74 1011.0
20260506180625 17 104 9.7 30.6 0.00 0.00 0.00 73 1011.0
20260506180122 17 72 6.4 20.9 0.00 0.00 0.00 73 1011.2
20260506175618 17 250 11.3 29.0 0.00 0.00 0.00 73 1010.9
20260506175114 17 253 8.0 24.1 0.00 0.00 0.00 72 1011.0
20260506174613 17 202 8.0 12.9 0.00 0.00 0.00 71 1011.2
20260506174109 17 213 8.0 29.0 0.00 0.00 0.00 71 1011.1
20260506173607 17 149 9.7 20.9 0.00 0.00 0.00 70 1011.1
20260506173103 18 170 6.4 17.7 0.00 0.00 0.00 69 1011.0
20260506172601 18 242 17.7 29.0 0.00 0.00 0.00 69 1011.4
20260506172057 18 187 19.3 33.8 0.00 0.00 0.00 67 1011.6
20260506171555 18 135 19.3 25.7 0.00 0.00 0.00 68 1011.4
20260506171052 19 139 20.9 30.6 0.00 0.00 0.00 66 1011.7
20260506170550 19 357 11.3 27.4 0.00 0.00 0.00 65 1011.1
20260506170047 19 193 17.7 27.4 0.00 0.00 0.00 65 1011.5
20260506165545 18 15 3.2 12.9 0.00 0.00 0.00 68 1011.5
20260506165041 18 165 29.0 37.0 0.00 0.00 0.00 67 1011.4
20260506164538 18 164 6.4 14.5 0.00 0.00 0.00 67 1011.4
20260506164036 18 172 11.3 30.6 0.00 0.00 0.00 67 1011.5
20260506163532 18 188 4.8 33.8 0.00 0.00 0.00 68 1011.5
20260506163027 18 145 6.4 16.1 0.00 0.00 0.00 68 1011.7
20260506162524 18 171 6.4 16.1 0.00 0.00 0.00 67 1011.7
20260506162021 18 108 4.8 25.7 0.00 0.00 0.00 67 1011.8
20260506161518 19 199 29.0 38.6 0.00 0.00 0.00 65 1011.9
20260506161010 19 140 11.3 25.7 0.00 0.00 0.00 65 1012.0
20260506160508 20 189 14.5 22.5 0.00 0.00 0.00 64 1012.1
20260506160005 19 16 3.2 16.1 0.00 0.00 0.00 64 1011.8
20260506155503 20 116 11.3 20.9 0.00 0.00 0.00 64 1012.0
20260506153634 20 152 16.1 25.7 0.00 0.00 0.00 64 1012.3
20260506153131 20 148 8.0 17.7 0.00 0.00 0.00 64 1012.2
20260506152628 20 148 14.5 17.7 0.00 0.00 0.00 64 1012.2
20260506152126 19 189 11.3 33.8 0.00 0.00 0.00 64 1012.4
20260506151624 20 150 4.8 22.5 0.00 0.00 0.00 64 1012.4
20260506151121 20 118 9.7 24.1 0.00 0.00 0.00 64 1012.6
20260506150618 20 169 8.0 16.1 0.00 0.00 0.00 64 1012.3
20260506150115 20 135 6.4 12.9 0.00 0.00 0.00 63 1012.4
20260506145612 20 142 16.1 17.7 0.00 0.00 0.00 65 1012.2
20260506145108 19 204 6.4 20.9 0.00 0.00 0.00 66 1012.4
20260506144605 18 147 14.5 17.7 0.00 0.00 0.00 67 1012.4
20260506144102 18 194 6.4 16.1 0.00 0.00 0.00 68 1012.8
20260506143600 18 311 6.4 12.9 0.00 0.00 0.00 68 1012.6
20260506143058 18 169 14.5 25.7 0.00 0.00 0.00 68 1012.6
20260506142555 18 172 8.0 12.9 0.00 0.00 0.00 69 1012.5
20260506142054 18 169 9.7 16.1 0.00 0.00 0.00 69 1012.5
20260506141551 18 152 16.1 20.9 0.00 0.00 0.00 69 1012.4
20260506141049 18 177 8.0 24.1 0.00 0.00 0.00 69 1012.4
20260506140546 18 240 14.5 22.5 0.00 0.00 0.00 70 1012.5
20260506140044 18 97 9.7 24.1 0.00 0.00 0.00 69 1012.5
20260506135540 17 190 9.7 16.1 0.00 0.00 0.00 69 1012.8
20260506135036 18 225 11.3 27.4 0.00 0.00 0.00 69 1012.4
20260506134533 18 135 14.5 20.9 0.00 0.00 0.00 69 1012.5
20260506134029 18 151 9.7 16.1 0.00 0.00 0.00 68 1012.4
20260506133526 18 311 9.7 12.9 0.00 0.00 0.00 70 1012.5
20260506133023 17 106 8.0 35.4 0.00 0.00 0.00 70 1012.3
20260506132520 17 209 11.3 16.1 0.00 0.00 0.00 71 1012.9
20260506132018 17 161 24.1 35.4 0.00 0.00 0.00 71 1012.8
20260506131515 17 227 11.3 25.7 0.00 0.00 0.00 71 1013.0
20260506131011 17 209 11.3 25.7 0.00 0.00 0.00 72 1012.9
20260506130508 17 128 3.2 14.5 0.00 0.00 0.00 74 1013.0
20260506130006 17 168 9.7 14.5 0.00 0.00 0.00 74 1013.2
20260506125504 16 214 8.0 22.5 0.00 0.00 0.00 76 1012.9
20260506125001 16 156 4.8 16.1 0.00 0.00 0.00 77 1012.9
20260506124459 16 163 4.8 29.0 0.00 0.00 0.00 77 1013.1
20260506123957 16 192 19.3 22.5 0.00 0.00 0.00 77 1013.2
20260506123454 16 33 3.2 20.9 0.00 0.00 0.00 79 1013.1
20260506122952 16 138 6.4 14.5 0.00 0.00 0.00 79 1013.0
20260506122448 16 154 17.7 25.7 0.00 0.00 0.00 79 1013.0
20260506121947 15 266 17.7 25.7 0.00 0.00 0.00 80 1012.8
20260506121443 15 159 19.3 25.7 0.00 0.00 0.00 81 1012.8
20260506120940 15 183 17.7 33.8 0.00 0.00 0.00 80 1012.9
20260506120438 15 127 4.8 17.7 0.00 0.00 0.00 81 1012.9
20260506115935 15 197 16.1 27.4 0.00 0.00 0.00 82 1013.0
20260506115433 15 174 24.1 30.6 0.00 0.00 0.00 82 1012.9
20260506114931 15 151 6.4 9.7 0.00 0.00 0.00 83 1013.3
20260506114428 15 273 12.9 22.5 0.00 0.00 0.00 85 1013.3
20260506113927 14 40 1.6 20.9 0.00 0.00 0.00 86 1013.2
20260506113424 14 183 16.1 20.9 0.00 0.00 0.00 87 1013.4
20260506112920 14 177 6.4 16.1 0.00 0.00 0.00 86 1013.4
20260506112418 14 149 9.7 17.7 0.00 0.00 0.00 86 1013.3
20260506111915 14 271 8.0 17.7 0.00 0.00 0.00 86 1013.1
20260506111413 14 185 12.9 20.9 0.00 0.00 0.00 87 1013.6
20260506110910 14 257 9.7 24.1 0.00 0.00 0.00 87 1013.3
20260506110408 14 142 16.1 22.5 0.00 0.00 0.00 87 1013.3
20260506105904 14 193 3.2 6.4 0.00 0.00 0.00 87 1013.1
20260506105400 13 230 4.8 33.8 0.00 0.00 0.00 88 1012.9
20260506104858 13 354 4.8 16.1 0.00 0.00 0.00 88 1013.2
20260506104356 13 28 3.2 20.9 0.00 0.00 0.00 88 1013.1
20260506103853 13 113 6.4 11.3 0.00 0.00 0.00 88 1013.2
20260506103351 13 175 6.4 16.1 0.00 0.00 0.00 88 1013.3
20260506102848 13 144 8.0 12.9 0.00 0.00 0.00 88 1013.2
20260506102346 13 63 4.8 20.9 0.00 0.00 0.00 88 1013.1
20260506101843 13 37 9.7 22.5 0.00 0.00 0.00 88 1013.2
20260506101338 13 245 9.7 17.7 0.00 0.00 0.00 88 1013.1
20260506100837 13 155 9.7 12.9 0.00 0.00 0.00 88 1013.2
20260506100335 13 73 3.2 9.7 0.00 0.00 0.00 88 1013.2
20260506095833 13 87 3.2 11.3 0.00 0.00 0.00 88 1013.1
20260506095330 13 118 8.0 22.5 0.00 0.00 0.00 88 1013.0
20260506094826 13 142 3.2 17.7 0.00 0.00 0.00 88 1013.0
20260506094325 13 224 6.4 11.3 0.00 0.00 0.00 88 1013.0
20260506093823 13 93 4.8 11.3 0.00 0.00 0.00 87 1013.2
20260506093320 13 158 17.7 20.9 0.00 0.00 0.00 87 1013.0
20260506092818 13 269 14.5 20.9 0.00 0.00 0.00 87 1012.9
20260506092315 13 197 9.7 14.5 0.00 0.00 0.00 87 1013.1
20260506091812 13 65 3.2 12.9 0.00 0.00 0.00 87 1013.1
20260506091310 13 44 3.2 14.5 0.00 0.00 0.00 87 1013.1
20260506090807 13 308 6.4 16.1 0.00 0.00 0.00 87 1013.4
20260506090304 13 158 11.3 24.1 0.00 0.00 0.00 87 1013.2
20260506085801 13 179 11.3 17.7 0.00 0.00 0.00 87 1013.3
20260506085257 13 141 14.5 20.9 0.00 0.00 0.00 86 1013.2
20260506084754 13 154 6.4 12.9 0.00 0.00 0.00 86 1013.3